Hourly Data Report for January 20, 2017

All times are specified in Local Standard Time (LST). Add 1 hour to adjust for Daylight Saving Time where and when it is observed.

ST LEONARD CS
NEW BRUNSWICK

47°09'28.050" N
67°49'55.014" W
245.00 m
810I001
71019
WIY

Download Data

Hourly Data (January 2017)
Hourly Data Report for January 20, 2017
Temp Definition
°C
Dew Point Temp Definition
°C
Rel Hum Definition
%
Wind Dir Definition
10's deg

Wind Spd Definition
km/h
Visibility Definition
km
Stn Press Definition
kPa
Hmdx Definition


Wind Chill Definition


Weather Definition


TIME
00:00 -5.1 -5.4 98 13 1   98.31   -6 LegendNANA
01:00 -4.0 -4.3 98 29 10   98.37   -8 LegendNANA
02:00 -3.4 -3.6 98 32 6   98.40   -6 LegendNANA
03:00 -3.1 -3.4 98 32 9   98.42   -7 LegendNANA
04:00 -2.9 -3.1 98 31 12   98.39   -7 LegendNANA
05:00 -2.3 -2.7 97 36 8   98.36   -5 LegendNANA
06:00 -2.4 -3.3 93 35 8   98.36   -6 LegendNANA
07:00 -2.7 -3.6 94 2 7   98.38   -6 LegendNANA
08:00 -3.0 -4.1 92 1 8   98.42   -6 LegendNANA
09:00 -2.8 -4.7 87 36 7   98.53   -6 LegendNANA
10:00 -2.7 -5.8 79 31 19   98.61   -8 LegendNANA
11:00 -2.6 -5.6 80 30 10   98.62   -6 LegendNANA
12:00 -2.8 -6.2 77 31 9   98.55   -6 LegendNANA
13:00 -2.7 -6.0 78 31 12   98.49   -7 LegendNANA
14:00 -2.7 -6.1 77 36 9   98.44   -6 LegendNANA
15:00 -2.7 -5.9 78 35 6   98.42   -5 LegendNANA
16:00 -2.7 -5.7 80 29 5   98.38   -5 LegendNANA
17:00 -3.0 -5.6 82 24 3   98.40   -4 LegendNANA
18:00 -3.1 -5.5 84 14 5   98.36   -5 LegendNANA
19:00 -3.3 -5.7 84   0   98.35     LegendNANA
20:00 -3.5 -5.3 87 13 6   98.31   -6 LegendNANA
21:00 -3.6 -5.5 86 14 6   98.29   -6 LegendNANA
22:00 -3.6 -5.5 87 12 8   98.25   -7 LegendNANA
23:00 -3.7 -5.4 88 14 9   98.21   -7 LegendNANA

Notes on Data Quality.

Legend

  • E = Estimated
  • M = Missing
  • NA = Not Available
  • ‡ = Partner data that is not subject to review by the National Climate Archives
Date modified: